CW7615 Weather Reports


Display with metric or nautical units.
time (UTC)temp
F
wind
direction
speed
MPH
gust
MPH
rain 1hr
in
rain 24hr
in
rain mn
in
humidity
%
barometer
mb
20260510051551 59 10 4.0 9.0 0.00 0.02 0.00 72 1015.2
20260510051052 59 360 5.0 10.0 0.00 0.02 0.00 72 1015.1
20260510050551 59 15 4.0 10.0 0.00 0.02 0.00 72 1015.1
20260510050050 59 307 3.0 9.0 0.00 0.02 0.00 72 1015.1
20260510045550 59 310 2.0 6.0 0.00 0.02 0.00 72 1015.1
20260510045050 59 329 3.0 8.0 0.00 0.02 0.00 72 1014.9
20260510044550 59 306 2.0 8.0 0.00 0.02 0.00 72 1014.9
20260510044050 59 333 3.0 10.0 0.00 0.02 0.00 72 1014.8
20260510043549 59 15 5.0 10.0 0.00 0.02 0.00 72 1014.9
20260510043051 59 355 4.0 10.0 0.00 0.02 0.00 72 1014.9
20260510042548 59 340 3.0 9.0 0.00 0.02 0.00 72 1015.1
20260510042052 59 5 3.0 9.0 0.00 0.02 0.00 72 1014.9
20260510041548 59 355 1.0 6.0 0.00 0.02 0.00 72 1014.8
20260510041049 59 333 3.0 6.0 0.00 0.02 0.00 72 1014.9
20260510040549 59 332 2.0 5.0 0.00 0.02 0.00 72 1015.0
20260510040057 59 306 2.0 5.0 0.00 0.02 0.00 72 1015.0
20260510035547 58 324 2.0 5.0 0.00 0.02 0.00 72 1015.0
20260510035048 58 332 2.0 6.0 0.00 0.02 0.00 73 1014.9
20260510034557 58 355 3.0 9.0 0.00 0.02 0.00 73 1015.0
20260510034048 58 326 3.0 9.0 0.00 0.02 0.00 73 1014.8
20260510033548 58 15 3.0 8.0 0.00 0.02 0.00 73 1014.7
20260510033046 58 355 3.0 10.0 0.00 0.02 0.00 72 1014.8
20260510032547 58 10 3.0 9.0 0.00 0.02 0.00 72 1014.9
20260510032046 58 304 3.0 9.0 0.00 0.02 0.00 72 1014.9
20260510031558 58 347 3.0 10.0 0.00 0.02 0.00 72 1015.0
20260510031044 58 336 3.0 10.0 0.00 0.02 0.00 72 1015.0
20260510030544 58 305 3.0 8.0 0.00 0.02 0.00 72 1015.0
20260510030044 58 360 2.0 9.0 0.00 0.02 0.00 72 1015.0
20260510025543 58 328 4.0 9.0 0.00 0.02 0.00 72 1015.0
20260510025144 59 311 3.0 6.0 0.00 0.02 0.00 72 1015.1
20260510024543 59 296 3.0 8.0 0.00 0.02 0.00 72 1015.2
20260510024043 59 360 3.0 8.0 0.00 0.02 0.00 72 1015.3
20260510023542 59 345 4.0 8.0 0.00 0.02 0.00 71 1015.2
20260510023045 59 337 4.0 8.0 0.00 0.02 0.00 71 1015.1
20260510022542 59 325 4.0 6.0 0.00 0.02 0.00 71 1015.1
20260510022041 59 320 3.0 8.0 0.00 0.02 0.00 71 1015.3
20260510021542 58 343 3.0 8.0 0.00 0.02 0.00 71 1015.4
20260510021041 58 328 3.0 8.0 0.00 0.02 0.00 72 1015.3
20260510020541 58 322 4.0 8.0 0.00 0.02 0.00 72 1015.2
20260510020042 58 355 3.0 9.0 0.00 0.02 0.00 72 1015.2
20260510015541 58 355 4.0 9.0 0.00 0.02 0.00 72 1015.1
20260510015039 58 5 4.0 8.0 0.00 0.02 0.00 72 1015.1
20260510014539 58 5 3.0 9.0 0.00 0.02 0.00 72 1015.0
20260510014039 57 344 4.0 9.0 0.00 0.02 0.00 73 1015.1
20260510013542 57 343 2.0 10.0 0.00 0.02 0.00 73 1015.2
20260510013045 57 5 5.0 10.0 0.00 0.02 0.00 73 1015.3
20260510012538 58 339 5.0 9.0 0.00 0.02 0.00 73 1015.5
20260510012038 58 336 6.0 9.0 0.00 0.02 0.00 72 1015.4
20260510011535 58 342 3.0 10.0 0.00 0.02 0.00 72 1015.6
20260510011037 58 324 5.0 10.0 0.00 0.02 0.00 72 1015.5
20260510010536 58 351 5.0 8.0 0.00 0.02 0.00 72 1015.6
20260510010033 58 339 4.0 6.0 0.00 0.02 0.00 72 1015.6
20260510005533 58 355 4.0 8.0 0.00 0.02 0.00 72 1015.6
20260510005032 58 342 4.0 9.0 0.00 0.02 0.00 71 1015.6
20260510004531 58 323 5.0 10.0 0.00 0.02 0.00 71 1015.6
20260510004030 58 296 5.0 10.0 0.00 0.02 0.00 71 1015.5
20260510003530 58 336 4.0 9.0 0.00 0.02 0.00 71 1015.6
20260510003031 59 338 5.0 10.0 0.00 0.02 0.00 71 1015.5
20260510002527 59 342 6.0 10.0 0.00 0.02 0.00 70 1015.5
20260510002027 59 355 5.0 9.0 0.00 0.02 0.00 70 1015.5
20260510001526 59 326 4.0 8.0 0.00 0.02 0.00 70 1015.6
20260510001025 59 346 5.0 8.0 0.00 0.02 0.00 70 1015.5
20260510000524 59 341 5.0 6.0 0.00 0.02 0.00 70 1015.6
20260510000024 59 304 4.0 9.0 0.00 0.02 0.00 69 1015.6
20260509235522 59 338 5.0 9.0 0.00 0.02 0.00 69 1015.7
20260509235022 59 333 3.0 6.0 0.00 0.02 0.00 69 1015.7
20260509234533 59 349 2.0 6.0 0.00 0.02 0.00 69 1015.7
20260509234020 60 355 3.0 8.0 0.00 0.02 0.00 69 1015.6
20260509233521 60 320 2.0 9.0 0.00 0.02 0.00 68 1015.6
20260509233019 60 360 5.0 9.0 0.00 0.02 0.00 68 1015.6
20260509232518 60 309 5.0 9.0 0.00 0.02 0.00 67 1015.7
20260509232018 60 312 4.0 9.0 0.00 0.02 0.00 67 1015.7
20260509231618 61 355 5.0 9.0 0.00 0.02 0.00 68 1015.9
20260509231017 60 331 5.0 8.0 0.00 0.02 0.00 68 1015.8
20260509230516 60 11 4.0 8.0 0.00 0.02 0.00 67 1015.8
20260509230015 60 347 4.0 8.0 0.00 0.02 0.00 67 1015.9
20260509225515 60 321 4.0 8.0 0.00 0.02 0.00 67 1016.0
20260509225012 60 340 4.0 8.0 0.00 0.02 0.00 67 1016.1
20260509224512 60 360 5.0 9.0 0.00 0.02 0.00 67 1016.1
20260509224010 60 5 5.0 9.0 0.00 0.02 0.00 66 1016.0
20260509223511 61 346 2.0 8.0 0.00 0.02 0.00 66 1016.1
20260509223009 61 339 5.0 8.0 0.00 0.02 0.00 66 1016.1
20260509222508 61 5 3.0 6.0 0.00 0.02 0.00 65 1016.0
20260509222008 61 340 3.0 8.0 0.00 0.02 0.00 65 1016.0
20260509221506 62 311 4.0 8.0 0.00 0.02 0.00 64 1016.1
20260509221006 62 355 3.0 6.0 0.00 0.02 0.00 64 1016.0
20260509220504 62 337 3.0 6.0 0.00 0.02 0.00 64 1015.9
20260509220011 62 334 3.0 6.0 0.00 0.02 0.02 64 1016.0
20260509215504 62 355 2.0 6.0 0.00 0.02 0.02 64 1015.9
20260509215001 62 355 3.0 6.0 0.00 0.02 0.02 64 1015.7
20260509214501 62 332 3.0 6.0 0.00 0.02 0.02 64 1015.7
20260509214002 62 337 3.0 6.0 0.00 0.02 0.02 64 1015.7
20260509213502 63 316 2.0 4.0 0.00 0.02 0.02 64 1015.6
20260509213100 63 355 2.0 4.0 0.00 0.02 0.02 63 1015.6
20260509212600 63 322 1.0 5.0 0.00 0.02 0.02 63 1015.6
20260509212100 63 322 1.0 5.0 0.00 0.02 0.02 63 1015.7
20260509211559 63 5 2.0 4.0 0.00 0.02 0.02 62 1015.6
20260509211101 63 343 1.0 4.0 0.00 0.02 0.02 62 1015.6
20260509210600 63 355 1.0 4.0 0.00 0.02 0.02 62 1015.6
20260509210108 63 355 0.0 5.0 0.00 0.02 0.02 63 1015.5
20260509205558 63 13 2.0 5.0 0.00 0.02 0.02 63 1015.5
20260509205059 63 324 0.0 4.0 0.00 0.02 0.02 63 1015.5
20260509204603 64 360 2.0 3.0 0.00 0.02 0.02 63 1015.5
20260509204057 64 33 1.0 4.0 0.00 0.02 0.02 63 1015.5
20260509203556 64 355 0.0 6.0 0.00 0.02 0.02 63 1015.4
20260509203057 64 19 1.0 5.0 0.00 0.02 0.02 63 1015.3
20260509202556 64 5 2.0 9.0 0.00 0.02 0.02 63 1015.3
20260509202057 63 351 1.0 11.0 0.00 0.02 0.02 63 1015.2
20260509201554 63 288 1.0 7.0 0.00 0.02 0.02 64 1015.1
20260509201053 63 333 1.0 5.0 0.00 0.02 0.02 65 1015.2
20260509200553 63 315 1.0 3.0 0.00 0.02 0.02 66 1015.0
20260509200106 63 330 0.0 6.0 0.00 0.02 0.02 66 1015.0
20260509195552 63 299 2.0 4.0 0.00 0.02 0.02 66 1014.8
20260509195051 63 342 1.0 4.0 0.00 0.02 0.02 68 1014.8
20260509194552 63 5 1.0 4.0 0.00 0.02 0.02 68 1014.9
20260509194051 63 5 1.0 3.0 0.00 0.02 0.02 68 1014.6
20260509193550 63 342 1.0 3.0 0.00 0.02 0.02 68 1014.7
20260509193048 63 331 0.0 4.0 0.00 0.02 0.02 69 1014.6
20260509192549 64 325 1.0 4.0 0.00 0.02 0.02 69 1014.6
20260509192049 64 329 2.0 5.0 0.00 0.02 0.02 69 1014.6
20260509191548 64 355 1.0 4.0 0.00 0.02 0.02 70 1014.5
20260509191051 64 82 0.0 3.0 0.00 0.02 0.02 70 1014.5
20260509190548 64 87 0.0 3.0 0.00 0.02 0.02 70 1014.4
20260509190056 64 43 0.0 5.0 0.00 0.02 0.02 70 1014.4
20260509185548 64 24 2.0 5.0 0.00 0.02 0.02 70 1014.4
20260509185047 65 207 0.0 5.0 0.00 0.02 0.02 70 1014.4
20260509184624 65 223 0.0 3.0 0.00 0.02 0.02 70 1014.3
20260509184050 65 142 0.0 5.0 0.00 0.02 0.02 70 1014.4
20260509183546 65 50 2.0 5.0 0.00 0.02 0.02 70 1014.3
20260509183048 65 20 1.0 4.0 0.00 0.02 0.02 70 1014.3
20260509182547 65 63 0.0 3.0 0.00 0.02 0.02 71 1014.2
20260509182046 65 33 0.0 4.0 0.00 0.02 0.02 71 1014.4
20260509181548 65 134 0.0 3.0 0.00 0.02 0.02 71 1014.4
20260509181046 65 44 0.0 5.0 0.00 0.02 0.02 71 1014.5
20260509180545 65 249 1.0 5.0 0.00 0.02 0.02 71 1014.5
20260509180045 65 113 1.0 5.0 0.00 0.02 0.02 71 1014.5
20260509175545 65 254 2.0 6.0 0.00 0.02 0.02 71 1014.4
20260509175045 65 233 0.0 2.0 0.00 0.02 0.02 72 1014.5
20260509174546 65 232 0.0 4.0 0.00 0.02 0.02 72 1014.5
20260509174045 65 200 1.0 4.0 0.00 0.02 0.02 71 1014.5
20260509173543 65 180 0.0 4.0 0.00 0.02 0.02 72 1014.4
20260509173046 66 155 0.0 5.0 0.00 0.02 0.02 72 1014.4
20260509172544 65 172 1.0 5.0 0.00 0.02 0.02 72 1014.3
20260509172043 66 193 1.0 5.0 0.00 0.02 0.02 71 1014.3
20260509171544 66 178 3.0 5.0 0.00 0.02 0.02 70 1014.2
20260509171046 67 173 3.0 6.0 0.00 0.02 0.02 69 1014.2
20260509170543 66 204 1.0 6.0 0.00 0.02 0.02 70 1014.1
20260509170043 66 126 2.0 4.0 0.00 0.02 0.02 71 1014.2
20260509165542 66 127 3.0 6.0 0.00 0.02 0.02 71 1014.2
20260509165042 66 121 3.0 5.0 0.00 0.02 0.02 72 1014.1
20260509164541 66 118 1.0 7.0 0.00 0.02 0.02 72 1014.3
20260509164045 66 116 1.0 8.0 0.00 0.02 0.02 74 1014.4
20260509163541 65 148 4.0 8.0 0.00 0.02 0.02 74 1014.3
20260509163054 65 103 2.0 8.0 0.00 0.02 0.02 74 1014.3
20260509162544 65 120 3.0 9.0 0.00 0.02 0.02 74 1014.4
20260509162041 65 117 5.0 9.0 0.00 0.02 0.02 75 1014.3
20260509161540 65 146 4.0 7.0 0.00 0.02 0.02 74 1014.2
20260509161043 65 146 3.0 7.0 0.00 0.02 0.02 73 1014.2
20260509160539 66 114 3.0 7.0 0.00 0.02 0.02 72 1014.1
20260509160039 66 135 1.0 4.0 0.00 0.02 0.02 73 1013.9
20260509155541 66 121 1.0 9.0 0.00 0.02 0.02 73 1013.9
20260509155037 66 121 5.0 9.0 0.00 0.02 0.02 72 1013.8
20260509154543 66 165 4.0 7.0 0.00 0.02 0.02 72 1013.8
20260509154038 66 159 2.0 10.0 0.00 0.02 0.02 72 1013.7
20260509153539 67 101 5.0 10.0 0.00 0.02 0.02 71 1013.7
20260509153037 67 140 5.0 10.0 0.00 0.02 0.02 71 1013.6
20260509152638 67 140 2.0 9.0 0.00 0.02 0.02 70 1013.6
20260509152035 68 138 3.0 10.0 0.00 0.02 0.02 70 1013.7
20260509151534 67 117 3.0 10.0 0.00 0.02 0.02 70 1013.7
20260509151038 67 129 3.0 7.0 0.00 0.02 0.02 70 1013.7
20260509150532 67 163 1.0 7.0 0.00 0.02 0.02 71 1013.9
20260509150032 66 121 3.0 7.0 0.00 0.02 0.02 72 1013.9
20260509145532 65 153 3.0 7.0 0.00 0.02 0.02 76 1013.8
20260509145031 65 192 1.0 5.0 0.00 0.02 0.02 75 1013.8
20260509144531 65 181 2.0 5.0 0.00 0.02 0.02 76 1013.9
20260509144031 64 142 1.0 5.0 0.00 0.02 0.02 77 1013.9
20260509143531 64 140 2.0 7.0 0.00 0.02 0.02 77 1013.9
20260509143036 64 107 2.0 6.0 0.00 0.02 0.02 78 1013.9
20260509142531 63 141 0.0 7.0 0.00 0.02 0.02 78 1014.0
20260509142030 63 115 3.0 8.0 0.00 0.02 0.02 78 1014.0
20260509141539 63 97 4.0 11.0 0.00 0.02 0.02 78 1014.0
20260509141029 63 110 6.0 11.0 0.00 0.02 0.02 77 1013.9
20260509140529 64 168 3.0 9.0 0.00 0.02 0.02 76 1013.9
20260509140028 64 156 3.0 10.0 0.00 0.02 0.02 76 1013.8
20260509135528 64 123 5.0 10.0 0.00 0.02 0.02 75 1013.8
20260509135031 64 121 3.0 8.0 0.00 0.02 0.02 75 1013.7
20260509134527 64 107 2.0 12.0 0.00 0.02 0.02 75 1013.6
20260509134028 64 146 7.0 12.0 0.00 0.02 0.02 75 1013.7
20260509133531 64 161 6.0 11.0 0.00 0.02 0.02 74 1013.6
20260509133027 64 102 3.0 10.0 0.00 0.02 0.02 73 1013.6
20260509132527 65 117 5.0 11.0 0.00 0.02 0.02 72 1013.6
20260509132029 65 142 3.0 11.0 0.00 0.02 0.02 71 1013.5
20260509131526 65 131 4.0 11.0 0.00 0.02 0.02 71 1013.4
20260509131027 66 118 5.0 11.0 0.00 0.02 0.02 69 1013.4
20260509130528 66 160 4.0 9.0 0.00 0.02 0.02 68 1013.4
20260509130026 66 123 3.0 12.0 0.00 0.02 0.02 68 1013.4
20260509125525 66 193 4.0 12.0 0.00 0.02 0.02 69 1013.3
20260509125028 65 147 1.0 8.0 0.00 0.02 0.02 71 1013.4
20260509124533 64 141 4.0 10.0 0.00 0.02 0.02 72 1013.6
20260509124025 64 113 5.0 10.0 0.00 0.02 0.02 72 1013.6
20260509123525 64 130 3.0 11.0 0.00 0.02 0.02 71 1013.6
20260509123035 65 182 5.0 15.0 0.00 0.02 0.02 70 1013.4
20260509122525 65 82 8.0 15.0 0.00 0.02 0.02 68 1013.5
20260509122026 66 98 7.0 13.0 0.00 0.02 0.02 67 1013.5
20260509121524 66 122 4.0 12.0 0.00 0.02 0.02 68 1013.4
20260509121023 66 86 6.0 12.0 0.00 0.02 0.02 67 1013.4
20260509120522 67 139 8.0 12.0 0.00 0.02 0.02 67 1013.5
20260509120022 67 109 4.0 12.0 0.00 0.02 0.02 68 1013.6
20260509115519 66 80 6.0 12.0 0.00 0.02 0.02 68 1013.6
20260509115026 66 123 7.0 12.0 0.00 0.02 0.02 70 1013.7
20260509114518 65 153 3.0 10.0 0.00 0.02 0.02 71 1013.7
20260509114019 64 117 5.0 11.0 0.00 0.02 0.02 71 1013.7
20260509113520 65 121 4.0 12.0 0.00 0.02 0.02 71 1013.7
20260509113016 65 139 6.0 12.0 0.00 0.02 0.02 69 1013.4
20260509112516 66 152 3.0 12.0 0.00 0.02 0.02 69 1013.2
20260509112014 66 141 7.0 12.0 0.00 0.02 0.02 71 1013.2
20260509111519 66 115 6.0 12.0 0.00 0.02 0.02 71 1013.2
20260509111014 65 157 4.0 11.0 0.00 0.02 0.02 70 1013.3
20260509110511 66 107 5.0 10.0 0.00 0.02 0.02 71 1013.3
20260509110009 65 163 3.0 7.0 0.00 0.02 0.02 71 1013.4
20260509105508 65 151 3.0 9.0 0.00 0.02 0.02 73 1013.2
20260509105007 65 138 3.0 9.0 0.00 0.02 0.02 71 1013.2
20260509104521 65 146 4.0 8.0 0.00 0.02 0.02 73 1013.2
20260509104008 65 117 5.0 9.0 0.00 0.02 0.02 74 1013.1
20260509103505 64 142 4.0 9.0 0.00 0.02 0.02 73 1013.2
20260509103005 65 117 2.0 8.0 0.00 0.02 0.02 74 1013.2
20260509102505 64 142 3.0 10.0 0.00 0.02 0.02 75 1013.1
20260509102003 64 136 2.0 10.0 0.00 0.02 0.02 74 1012.9
20260509101503 64 153 3.0 9.0 0.00 0.02 0.02 75 1013.0
20260509101002 64 132 4.0 10.0 0.00 0.02 0.02 75 1012.9
20260509100500 64 100 3.0 10.0 0.00 0.02 0.02 75 1012.8
20260509100115 63 138 5.0 9.0 0.00 0.02 0.02 76 1012.7
20260509095559 63 177 3.0 10.0 0.00 0.02 0.02 76 1012.7
20260509095058 63 129 4.0 8.0 0.00 0.02 0.02 78 1012.7
20260509094556 62 144 3.0 7.0 0.00 0.02 0.02 78 1012.8
20260509094054 62 136 3.0 7.0 0.00 0.02 0.02 79 1012.9
20260509093653 61 117 4.0 7.0 0.00 0.02 0.02 79 1013.0
20260509093053 61 136 2.0 5.0 0.00 0.02 0.02 81 1012.9
20260509092556 61 122 1.0 3.0 0.00 0.02 0.02 82 1012.9
20260509092051 60 100 0.0 3.0 0.00 0.02 0.02 82 1012.8
20260509091603 60 99 0.0 3.0 0.00 0.02 0.02 83 1012.7
20260509091049 60 99 0.0 0.0 0.00 0.02 0.02 84 1012.6
20260509090549 60 99 0.0 0.0 0.00 0.02 0.02 85 1012.6
20260509090051 60 99 0.0 2.0 0.00 0.02 0.02 85 1012.6
20260509085547 59 94 0.0 2.0 0.00 0.02 0.02 84 1012.7
20260509085055 59 94 0.0 1.0 0.00 0.02 0.02 84 1012.6
20260509084546 59 94 0.0 1.0 0.00 0.02 0.02 84 1012.5
20260509084046 59 94 0.0 2.0 0.00 0.02 0.02 85 1012.4
20260509083545 58 94 0.0 2.0 0.00 0.02 0.02 85 1012.4
20260509083047 58 92 0.0 2.0 0.00 0.02 0.02 85 1012.3
20260509082543 58 92 0.0 2.0 0.00 0.02 0.02 86 1012.3
20260509082044 58 92 0.0 3.0 0.00 0.02 0.02 88 1012.2
20260509081553 58 92 0.0 2.0 0.00 0.02 0.02 89 1012.2
20260509081043 58 78 0.0 4.0 0.00 0.02 0.02 89 1012.1
20260509080543 57 78 1.0 5.0 0.00 0.02 0.02 90 1011.9
20260509080049 58 73 2.0 6.0 0.00 0.02 0.02 91 1011.9
20260509075541 57 49 3.0 5.0 0.00 0.02 0.02 91 1011.9
20260509075041 57 67 3.0 5.0 0.00 0.02 0.02 90 1011.9
20260509074544 57 114 1.0 3.0 0.00 0.02 0.02 91 1012.2
20260509074040 57 114 0.0 4.0 0.00 0.02 0.02 91 1012.0
20260509073539 57 114 2.0 7.0 0.00 0.02 0.02 91 1012.0
20260509073045 57 119 4.0 12.0 0.00 0.02 0.02 90 1011.9
20260509072541 57 98 6.0 12.0 0.00 0.02 0.02 91 1012.0
20260509072036 58 170 3.0 7.0 0.00 0.02 0.02 91 1012.0
20260509071535 58 129 2.0 6.0 0.00 0.02 0.02 91 1011.8
20260509071034 58 119 2.0 7.0 0.00 0.02 0.02 92 1011.3
20260509070534 59 136 3.0 7.0 0.01 0.02 0.02 92 1011.5
20260509070033 59 123 3.0 7.0 0.01 0.02 0.02 92 1011.3
20260509065532 59 103 1.0 6.0 0.01 0.02 0.02 92 1011.1
20260509065029 59 129 2.0 6.0 0.01 0.02 0.02 92 1011.2
20260509064531 59 169 3.0 5.0 0.01 0.02 0.02 92 1011.2
20260509064029 59 140 1.0 4.0 0.01 0.02 0.02 92 1010.9
20260509063528 59 147 0.0 4.0 0.02 0.02 0.02 92 1011.1
20260509063034 59 180 0.0 0.0 0.02 0.02 0.02 92 1011.0
20260509062528 59 180 0.0 0.0 0.02 0.02 0.02 91 1010.9
20260509062028 59 180 0.0 2.0 0.02 0.02 0.02 91 1010.9
20260509061538 59 180 0.0 4.0 0.02 0.02 0.02 91 1010.9
20260509061030 59 180 1.0 8.0 0.02 0.02 0.02 91 1010.5
20260509060525 59 167 1.0 8.0 0.01 0.01 0.01 90 1010.3
20260509060026 59 169 4.0 8.0 0.01 0.01 0.01 90 1010.4
20260509055530 59 222 3.0 9.0 0.01 0.01 0.01 90 1010.2
20260509055023 59 22 1.0 12.0 0.01 0.01 0.01 90 1009.4
20260509054523 59 76 3.0 12.0 0.01 0.01 0.01 89 1009.5
20260509054023 60 16 7.0 11.0 0.01 0.01 0.01 89 1009.5
20260509053522 60 153 1.0 2.0 0.00 0.00 0.00 89 1010.2
20260509053037 60 278 0.0 3.0 0.00 0.00 0.00 88 1010.1
20260509052524 60 273 1.0 3.0 0.00 0.00 0.00 88 1010.0
20260509052021 60 342 0.0 2.0 0.00 0.00 0.00 88 1009.9